EW6612 Weather Reports


Display with metric or nautical units.
time (UTC)temp
F
wind
direction
speed
MPH
gust
MPH
rain 1hr
in
rain 24hr
in
rain mn
in
humidity
%
barometer
mb
20180117005257 54 332 0.0 0.0 0.00 0.01 0.00 96 1031.3
20180117004249 54 324 0.0 0.0 0.00 0.01 0.00 95 1031.3
20180117003239 54 324 0.0 0.0 0.00 0.01 0.00 95 1031.4
20180117002231 54 324 0.0 0.0 0.00 0.01 0.00 95 1031.5
20180117001224 54 324 0.0 0.0 0.00 0.01 0.00 95 1031.7
20180117000215 54 324 0.0 0.0 0.00 0.01 0.00 95 1031.6
20180116235215 54 313 0.0 0.0 0.00 0.01 0.01 96 1031.8
20180116234156 54 313 0.0 0.0 0.00 0.01 0.01 96 1031.9
20180116233152 54 313 0.0 0.0 0.00 0.01 0.01 96 1031.9
20180116232146 54 313 0.0 0.0 0.00 0.01 0.01 96 1032.0
20180116231138 54 313 0.0 0.0 0.00 0.01 0.01 95 1031.9
20180116230130 54 313 0.0 0.0 0.00 0.01 0.01 95 1031.9
20180116225123 54 313 0.0 0.0 0.00 0.01 0.01 95 1031.9
20180116224114 54 313 0.0 0.0 0.00 0.01 0.01 95 1031.9
20180116223106 53 313 0.0 0.0 0.00 0.01 0.01 95 1032.0
20180116222056 53 313 0.0 0.0 0.00 0.01 0.01 95 1032.0
20180116221048 53 313 0.0 0.0 0.00 0.01 0.01 95 1032.1
20180116220040 53 313 0.0 0.0 0.00 0.01 0.01 95 1032.1
20180116215033 54 313 0.0 0.0 0.00 0.01 0.01 95 1032.0
20180116214025 54 313 0.0 0.0 0.00 0.01 0.01 95 1032.0
20180116213018 54 313 0.0 0.0 0.00 0.01 0.01 95 1032.0
20180116212009 54 313 0.0 0.0 0.00 0.01 0.01 95 1031.9
20180116211003 54 313 0.0 0.0 0.00 0.01 0.01 95 1031.9
20180116205954 54 313 0.0 0.0 0.00 0.01 0.01 95 1032.0
20180116204946 54 313 0.0 0.0 0.00 0.01 0.01 95 1032.0
20180116203938 54 313 0.0 0.0 0.00 0.01 0.01 95 1031.9
20180116202939 54 313 0.0 0.0 0.00 0.01 0.01 95 1031.8
20180116201926 54 313 0.0 0.0 0.00 0.01 0.01 95 1031.6
20180116200914 54 313 0.0 0.0 0.00 0.01 0.01 95 1031.5
20180116195906 54 313 0.0 0.0 0.00 0.01 0.01 95 1031.4
20180116194850 55 313 0.0 0.0 0.00 0.01 0.01 95 1031.2
20180116193856 55 313 0.0 0.0 0.00 0.01 0.01 95 1031.1
20180116192850 55 313 0.0 0.0 0.00 0.01 0.01 95 1031.1
20180116191852 55 313 0.0 2.0 0.00 0.01 0.01 95 1031.0
20180116190847 55 337 0.0 3.0 0.00 0.01 0.01 95 1031.0
20180116185849 55 304 0.0 0.0 0.00 0.01 0.01 95 1031.0
20180116184846 55 275 0.0 0.0 0.00 0.01 0.01 94 1031.0
20180116183835 55 275 0.0 0.0 0.01 0.01 0.01 94 1031.0
20180116182829 55 275 0.0 0.0 0.01 0.01 0.01 94 1031.0
20180116181830 55 275 0.0 0.0 0.01 0.01 0.01 94 1031.0
20180116180831 56 275 0.0 0.0 0.01 0.01 0.01 94 1031.0
20180116175821 56 275 0.0 0.0 0.01 0.01 0.01 94 1030.8
20180116174815 56 275 0.0 0.0 0.01 0.01 0.01 94 1031.0
20180116173806 56 275 0.0 0.0 0.00 0.00 0.00 94 1031.1
20180116172803 56 275 0.0 0.0 0.00 0.00 0.00 94 1031.0
20180116171747 56 269 0.0 0.0 0.00 0.00 0.00 94 1031.1
20180116170741 56 269 0.0 1.0 0.00 0.00 0.00 94 1031.0
20180116165739 56 311 0.0 0.0 0.00 0.00 0.00 94 1030.9
20180116164723 57 315 0.0 0.0 0.00 0.00 0.00 94 1031.0
20180116163717 57 315 0.0 0.0 0.00 0.00 0.00 94 1030.9
20180116162711 57 340 0.0 0.0 0.00 0.00 0.00 94 1031.0
20180116161702 57 311 0.0 4.0 0.00 0.00 0.00 94 1031.0
20180116160655 57 327 0.0 0.0 0.00 0.00 0.00 94 1031.0
20180116155653 57 288 0.0 0.0 0.00 0.00 0.00 94 1031.0
20180116154651 57 324 1.0 5.0 0.00 0.00 0.00 93 1030.9
20180116153653 57 329 6.0 11.0 0.00 0.00 0.00 93 1030.8
20180116152649 58 355 1.0 9.0 0.00 0.00 0.00 93 1030.8
20180116151718 58 306 1.0 6.0 0.00 0.00 0.00 93 1030.8
20180116150649 58 271 3.0 5.0 0.00 0.00 0.00 93 1030.7
20180116145649 58 301 4.0 8.0 0.00 0.00 0.00 93 1030.8
20180116144649 58 305 3.0 7.0 0.00 0.00 0.00 93 1030.8
20180116143649 58 303 3.0 6.0 0.00 0.00 0.00 93 1030.8
20180116142645 58 280 3.0 6.0 0.00 0.00 0.00 93 1030.8
20180116141643 58 344 1.0 3.0 0.00 0.00 0.00 93 1030.9
20180116140640 58 346 0.0 2.0 0.00 0.00 0.00 93 1031.1
20180116135640 58 346 2.0 5.0 0.00 0.00 0.00 94 1031.3
20180116134635 58 337 3.0 6.0 0.00 0.00 0.00 94 1031.4
20180116133635 58 335 2.0 5.0 0.00 0.00 0.00 94 1031.7
20180116132633 58 304 4.0 6.0 0.00 0.00 0.00 94 1031.8
20180116131623 58 340 3.0 5.0 0.00 0.00 0.00 94 1031.9
20180116130625 58 288 3.0 7.0 0.00 0.00 0.00 94 1032.1
20180116125622 58 323 3.0 7.0 0.00 0.00 0.00 95 1032.2
20180116124621 57 313 4.0 9.0 0.00 0.00 0.00 95 1032.3
20180116123619 57 341 3.0 8.0 0.00 0.00 0.00 95 1032.4
20180116122620 57 308 1.0 2.0 0.00 0.00 0.00 95 1032.4
20180116121614 57 308 1.0 3.0 0.00 0.00 0.00 95 1032.5
20180116120612 57 307 1.0 3.0 0.00 0.00 0.00 95 1032.6
20180116115610 57 307 2.0 3.0 0.00 0.00 0.00 95 1032.7
20180116114609 57 307 1.0 2.0 0.00 0.00 0.00 95 1032.8
20180116113606 56 307 2.0 4.0 0.00 0.00 0.00 95 1032.8
20180116112605 56 306 0.0 3.0 0.00 0.00 0.00 95 1032.9
20180116111605 56 306 0.0 0.0 0.00 0.00 0.00 96 1032.9
20180116110600 56 306 0.0 0.0 0.00 0.00 0.00 95 1032.8
20180116105604 55 306 0.0 0.0 0.00 0.00 0.00 95 1032.8
20180116104557 55 306 0.0 0.0 0.00 0.00 0.00 95 1032.9
20180116103550 55 306 0.0 0.0 0.00 0.00 0.00 95 1032.9
20180116102542 54 306 0.0 1.0 0.00 0.00 0.00 95 1032.7
20180116101532 54 306 0.0 0.0 0.00 0.00 0.00 96 1032.6
20180116100527 53 306 0.0 0.0 0.00 0.00 0.00 95 1032.6
20180116095521 53 306 0.0 0.0 0.00 0.00 0.00 95 1032.6
20180116094505 53 306 0.0 2.0 0.00 0.00 0.00 96 1032.5
20180116093503 52 306 0.0 1.0 0.00 0.00 0.00 95 1032.4
20180116092503 52 306 0.0 0.0 0.00 0.00 0.00 95 1032.4
20180116091447 51 306 0.0 0.0 0.00 0.00 0.00 95 1032.4
20180116090438 51 306 0.0 1.0 0.00 0.01 0.00 95 1032.3
20180116085430 50 306 0.0 0.0 0.00 0.01 0.00 95 1032.2
20180116084422 50 306 0.0 0.0 0.00 0.01 0.00 95 1032.1
20180116083400 49 306 0.0 0.0 0.00 0.01 0.00 95 1032.1
20180116082356 49 306 0.0 0.0 0.00 0.01 0.00 95 1032.0
20180116081350 49 306 0.0 0.0 0.00 0.01 0.00 95 1032.0
20180116080353 48 306 0.0 0.0 0.00 0.01 0.00 95 1031.9
20180116075342 48 306 0.0 0.0 0.00 0.01 0.00 95 1031.9
20180116074335 48 306 0.0 0.0 0.00 0.01 0.00 95 1031.9
20180116073325 48 306 0.0 0.0 0.00 0.01 0.00 95 1031.9
20180116072323 48 306 0.0 0.0 0.00 0.01 0.00 95 1031.9
20180116071310 47 306 0.0 0.0 0.00 0.01 0.00 95 1031.8
20180116070258 47 306 0.0 0.0 0.00 0.01 0.00 94 1031.6
20180116065250 47 306 0.0 0.0 0.00 0.01 0.00 95 1031.5
20180116064243 47 306 0.0 0.0 0.00 0.01 0.00 95 1031.4
20180116063234 47 306 0.0 0.0 0.00 0.01 0.00 94 1031.4
20180116062228 47 306 0.0 0.0 0.00 0.01 0.00 94 1031.4
20180116061220 47 306 0.0 0.0 0.00 0.01 0.00 94 1031.4
20180116060209 47 306 0.0 0.0 0.00 0.01 0.00 94 1031.5
20180116055206 47 306 0.0 0.0 0.00 0.01 0.00 94 1031.5
20180116054158 47 306 0.0 0.0 0.00 0.01 0.00 95 1031.6
20180116053135 47 306 0.0 0.0 0.00 0.01 0.00 95 1031.5
20180116052132 47 306 0.0 0.0 0.00 0.01 0.00 94 1031.4
20180116051138 47 306 0.0 0.0 0.00 0.01 0.00 94 1031.5
20180116050118 47 306 0.0 0.0 0.00 0.01 0.00 95 1031.5
20180116045113 47 306 0.0 0.0 0.00 0.01 0.00 95 1031.4
20180116044105 46 306 0.0 0.0 0.00 0.01 0.00 94 1031.4
20180116043057 46 306 0.0 0.0 0.00 0.01 0.00 95 1031.4
20180116042053 46 306 0.0 0.0 0.00 0.01 0.00 95 1031.6
20180116041046 46 306 0.0 0.0 0.00 0.01 0.00 95 1031.6
20180116040012 46 306 0.0 0.0 0.00 0.01 0.00 95 1031.7
20180116035005 46 306 0.0 0.0 0.00 0.01 0.00 95 1031.6
20180116033957 46 306 0.0 0.0 0.00 0.01 0.00 95 1031.5
20180116032950 46 306 0.0 0.0 0.00 0.01 0.00 95 1031.4
20180116031937 45 306 0.0 0.0 0.00 0.01 0.00 95 1031.8
20180116030934 45 306 0.0 0.0 0.00 0.01 0.00 95 1031.7
20180116025925 45 306 0.0 0.0 0.00 0.01 0.00 95 1031.8
20180116024917 45 306 0.0 0.0 0.00 0.01 0.00 95 1031.9
20180116023911 45 306 0.0 0.0 0.00 0.01 0.00 95 1032.1
20180116022901 44 306 0.0 0.0 0.00 0.01 0.00 95 1032.1
20180116021853 44 306 0.0 0.0 0.00 0.01 0.00 95 1032.2
20180116020837 44 306 0.0 0.0 0.00 0.01 0.00 95 1032.2
20180116015835 44 306 0.0 0.0 0.00 0.01 0.00 95 1032.1
20180116014829 44 306 0.0 0.0 0.00 0.01 0.00 95 1032.2
20180116013815 44 306 0.0 0.0 0.00 0.01 0.00 95 1032.3
20180116012813 44 306 0.0 0.0 0.00 0.01 0.00 95 1032.2
20180116011806 44 306 0.0 0.0 0.00 0.01 0.00 95 1032.2
20180116010757 44 306 0.0 0.0 0.00 0.01 0.00 95 1032.5
20180116005745 44 306 0.0 0.0 0.00 0.01 0.00 95 1032.5